Tracking 19832 objects as of 26-Aug-2019
HD Live streaming from Space Station
objects crossing your sky now

UNHA 3 R/B

Track UNHA 3 R/B now!
10-day predictions


NORAD ID: 41333
Int'l Code: 2016-009B
Perigee: 430.5 km
Apogee: 487.4 km
Inclination: 97.4 °
Period: 93.6 minutes
Semi major axis: 6829 km
RCS: Unknown
Launch date: February 7, 2016
Source: North Korea (NKOR)
Launch site: Yunsong, DPRK (YUN)

Note: This is a ROCKET BODY
aabbcc
Your satellite tracking list
Your tracking list is empty




NASA's NSSDC Master Catalog

Two Line Element Set (TLE):
1 41333U 16009B   19237.78107482  .00000784  00000-0  22619-4 0  9992
2 41333  97.3816 317.4779 0041634  17.2133 343.0513 15.38079812198880
Source of the keplerian elements: AFSPC